Lapse_Rate
5.8 5.6 5.4 5.3 5.1 5.1 5.1 5.1 4.8 4.9 5.0 5.1 5.0 4.9 4.8 4.9 5.1 5.0 4.8 4.9 5.0 5.1 5.1 5.4 5.8 6.1 6.3 6.5 6.6 6.4 6.5 6.5 6.6 6.5 6.5 6.5 6.6 6.5 6.4 6.4 6.4 6.3 6.2
5.8 5.8 5.6 5.2 5.1 5.2 5.1 5.0 5.1 5.0 5.1 5.0 5.0 5.0 4.8 5.0 5.1 5.3 5.3 5.1 4.9 4.9 4.8 5.3 5.3 5.6 6.0 6.2 6.4 6.5 6.4 6.5 6.5 6.4 6.6 6.5 6.4 6.4 6.5 6.4 6.3 6.2 6.2
5.8 5.9 5.5 5.4 5.4 5.5 5.3 5.3 5.2 5.3 5.4 5.2 5.2 5.2 5.1 5.0 4.9 4.7 4.9 5.0 5.3 5.4 4.9 4.9 5.1 5.1 5.1 5.6 6.1 6.2 6.1 6.5 6.5 6.5 6.5 6.5 6.5 6.4 6.4 6.4 6.2 6.2 6.2
5.9 5.8 5.6 5.3 5.5 5.8 5.8 5.6 5.5 5.7 5.8 5.4 5.1 4.9 4.9 4.8 4.8 4.9 5.0 4.9 4.9 5.0 5.0 5.0 5.0 5.1 5.0 5.0 5.3 5.9 6.0 5.9 6.2 6.4 6.5 6.5 6.5 6.4 6.3 6.2 6.2 6.2 6.2
5.8 5.9 5.7 5.5 5.6 6.0 5.7 5.7 5.8 5.6 5.5 5.1 5.2 5.1 4.9 4.7 4.9 5.1 5.1 4.9 5.0 5.0 5.1 5.2 5.2 5.2 4.9 4.9 5.0 5.2 5.5 5.8 5.9 6.1 6.3 6.4 6.5 6.5 6.4 6.2 6.2 6.2 6.1
5.6 5.7 5.7 6.0 5.9 5.7 5.6 5.6 5.6 5.4 5.2 5.2 5.3 5.2 5.1 5.1 5.1 5.2 5.3 5.2 5.0 4.9 4.9 5.0 5.1 5.2 5.1 5.1 5.0 5.1 5.2 5.3 5.7 5.8 5.9 6.1 6.2 6.3 6.4 6.2 6.1 6.2 6.1
5.5 5.7 5.7 5.7 5.8 5.8 5.8 5.6 5.4 5.4 5.2 5.3 5.3 5.3 5.3 5.5 5.3 5.3 5.4 5.3 5.2 5.2 5.2 5.2 5.3 5.3 5.2 4.9 5.0 5.1 5.1 5.0 5.2 5.7 5.8 5.8 6.0 6.1 6.0 6.1 6.1 6.2 6.1
5.5 5.5 5.7 5.7 5.8 5.8 5.9 5.8 5.7 5.7 5.7 5.6 5.4 5.6 5.6 5.6 5.7 5.7 5.7 5.4 5.3 5.3 5.2 5.2 5.3 5.2 5.2 5.3 5.1 5.1 5.0 5.0 4.9 5.2 5.6 5.7 5.8 5.9 6.0 6.0 6.1 6.0 5.9
6.0 5.8 5.7 5.7 5.8 5.9 5.7 5.7 5.8 5.9 5.7 5.7 5.7 5.7 5.8 5.9 5.9 5.9 5.7 5.7 5.6 5.4 5.4 5.3 5.3 5.5 5.2 5.5 5.5 5.4 5.4 5.1 5.1 5.1 5.1 5.3 5.6 5.6 5.7 5.9 5.9 5.9 5.9
6.2 6.1 6.1 6.1 6.0 5.8 5.9 5.9 5.8 5.8 5.8 5.7 5.6 5.7 5.7 5.9 5.9 5.7 5.6 5.8 5.8 5.7 5.7 5.6 5.6 5.4 5.4 5.5 5.5 5.6 5.3 5.3 5.0 5.0 5.0 5.0 5.3 5.5 5.5 5.8 5.8 5.8 5.7
6.5 6.2 6.2 6.1 6.2 6.1 6.0 5.9 5.9 5.8 5.6 5.6 5.7 5.7 5.8 5.8 5.7 5.7 5.8 5.6 5.9 5.8 5.8 5.6 5.6 5.5 5.6 5.6 5.5 5.5 5.5 5.3 5.2 5.0 5.0 5.0 5.2 5.4 5.5 5.5 5.8 5.6 5.7
6.5 6.2 5.9 6.1 6.1 5.9 5.9 5.8 5.7 6.0 6.1 5.8 5.7 5.8 5.8 5.7 5.6 5.8 6.0 5.7 6.0 5.8 5.8 5.8 5.9 5.8 5.7 5.8 5.6 5.5 5.5 5.4 5.2 5.0 5.1 5.1 5.2 5.5 5.4 5.4 5.6 5.8 5.7
6.6 6.2 6.1 5.9 5.8 5.7 5.5 5.4 5.4 5.5 5.8 5.9 5.9 5.9 5.9 5.9 5.6 5.8 6.0 5.7 5.8 5.8 6.0 5.8 6.0 5.9 5.9 6.1 5.9 5.7 5.5 5.3 5.2 5.3 5.2 5.4 5.2 5.5 5.5 5.5 5.5 5.6 5.7
6.8 6.3 6.3 6.6 6.5 6.2 6.1 5.9 6.2 5.8 5.8 6.0 6.1 6.0 5.9 5.9 5.7 5.9 5.9 5.8 5.9 6.0 5.8 5.7 5.9 6.0 6.2 6.3 6.1 5.9 5.8 5.5 5.3 5.6 5.5 5.4 5.5 5.3 5.5 5.5 5.6 5.6 5.7
6.7 6.8 6.5 6.6 6.6 5.5 5.5 5.8 6.0 5.9 6.0 5.7 5.9 6.1 6.1 6.1 6.2 6.3 5.9 5.8 6.0 6.1 6.0 5.7 6.3 6.2 6.4 6.3 6.1 5.8 5.8 5.7 5.5 5.3 5.5 5.2 5.2 5.3 5.4 5.4 5.2 5.2 5.5
6.7 6.8 7.0 6.8 6.5 6.1 6.1 5.6 5.9 5.9 6.2 5.9 6.0 6.2 6.1 6.3 6.4 6.2 6.1 6.1 6.0 6.1 6.2 6.1 6.4 6.3 6.3 6.2 6.1 5.9 5.9 5.9 5.8 5.3 5.3 5.2 5.2 5.0 5.1 5.2 5.0 5.2 5.4
7.1 7.2 7.0 6.6 6.3 6.1 5.3 5.0 4.6 5.5 6.4 6.4 6.3 6.2 6.1 6.0 6.1 6.2 6.2 6.2 6.3 6.5 6.4 6.4 6.5 6.5 6.5 6.3 6.3 6.3 6.3 6.2 6.1 5.7 5.2 5.2 5.2 5.1 5.0 5.3 5.4 5.4 5.5
7.4 7.4 7.0 6.8 6.5 6.2 5.3 3.7 4.9 5.5 5.8 6.3 6.3 6.5 6.4 6.2 6.0 6.0 6.1 6.3 6.5 6.6 6.7 6.6 6.5 6.6 6.6 6.5 6.5 6.5 6.3 6.2 6.2 5.9 5.5 5.5 5.4 5.3 5.4 5.3 5.4 5.4 5.5
7.7 7.5 7.1 6.8 6.5 6.4 6.1 5.4 5.8 5.8 6.1 6.5 6.3 6.3 6.6 6.6 6.4 6.3 6.3 6.4 6.5 6.5 6.8 6.8 6.6 6.6 6.7 6.6 6.7 6.6 6.5 6.4 6.3 6.2 6.0 5.9 5.6 5.3 5.3 5.2 5.2 5.2 5.4
7.9 8.0 7.6 7.2 6.7 6.4 6.6 6.7 6.5 6.4 6.5 6.6 6.5 6.2 6.2 6.2 6.3 6.3 6.5 6.5 6.4 6.5 6.6 6.7 6.9 6.9 6.7 6.7 6.6 6.5 6.6 6.7 6.7 6.6 6.5 6.3 6.1 5.8 5.4 5.2 5.1 5.1 5.1
7.9 8.2 7.9 7.7 7.5 6.8 6.6 6.8 6.7 7.1 7.0 6.9 6.5 6.1 6.0 6.2 6.3 6.5 6.8 6.4 6.2 5.8 6.5 7.1 7.1 7.0 6.8 6.8 6.6 6.5 6.5 6.5 6.6 6.6 6.6 6.6 6.5 6.1 5.6 5.6 5.5 5.4 5.4
8.1 7.8 7.9 7.9 7.7 7.4 7.0 6.8 6.9 7.0 7.3 7.5 7.0 6.8 6.7 6.6 6.3 6.4 6.7 6.2 6.1 6.3 6.4 7.2 7.2 7.1 6.9 6.9 6.7 6.7 6.6 6.3 6.3 6.1 6.4 6.4 6.4 6.5 6.5 6.2 5.8 5.7 6.0
8.0 7.7 7.6 7.7 7.8 7.7 7.4 7.2 7.2 7.3 7.3 7.0 7.1 7.2 7.2 6.8 6.4 6.4 6.5 6.1 6.1 6.6 6.6 6.8 7.3 7.0 7.0 7.0 7.1 7.0 6.9 6.8 6.5 6.5 6.5 6.4 6.3 6.3 6.1 6.4 6.5 6.3 6.2
7.6 7.6 7.7 7.5 7.5 7.4 7.4 7.2 7.2 7.1 7.0 7.0 7.3 7.2 7.0 6.4 6.4 6.6 6.4 6.2 6.0 6.0 6.4 6.8 6.8 7.0 7.1 7.1 7.3 7.1 7.1 7.0 6.8 6.6 6.4 6.7 6.1 6.3 6.1 6.3 6.3 6.3 6.3
7.5 7.4 7.4 7.4 7.4 7.2 7.1 7.0 6.9 6.9 7.0 6.9 7.0 7.0 6.7 6.1 6.2 6.4 6.0 6.0 5.7 6.1 6.0 6.5 7.0 7.2 7.1 7.0 7.1 7.0 7.1 6.7 6.9 7.0 6.5 7.0 6.2 6.2 6.3 6.2 6.0 6.0 6.0
7.1 7.2 7.2 7.1 7.1 7.1 6.9 6.8 6.8 6.6 6.7 6.7 6.7 6.9 6.5 6.3 6.0 6.1 6.4 5.6 5.9 5.5 6.3 6.2 6.6 6.9 7.0 6.8 6.7 6.8 6.7 6.7 6.4 6.9 6.7 6.7 6.7 6.2 6.5 6.5 6.3 6.0 5.8
Wind_Speed
6 7 6 6 6 5 6 3 2 5 6 7 7 6 5 5 5 4 7 9 6 7 5 4 5 5 5 5 5 6 5 6 9 10 10 11 11 10 9 8 10 11 11
10 8 7 7 8 11 10 10 7 6 5 6 7 7 6 7 10 6 5 9 9 5 7 8 8 7 7 6 6 7 6 4 7 11 10 10 11 10 9 9 11 11 11
14 11 7 6 11 15 13 11 6 7 3 5 4 6 6 8 10 11 11 9 10 9 12 10 10 9 8 7 7 7 7 5 5 7 8 9 11 10 11 11 11 12 12
16 11 7 6 12 10 11 6 3 3 3 3 3 3 3 7 9 12 12 14 14 13 16 14 9 8 8 10 9 8 7 9 7 7 9 10 11 10 12 12 12 12 12
16 13 8 8 10 7 6 5 2 2 2 3 4 3 4 4 6 8 11 13 15 14 17 17 15 15 12 13 12 11 11 10 8 8 9 12 12 11 12 12 12 12 13
13 10 7 6 9 3 4 3 3 4 3 3 2 3 4 4 7 6 8 11 12 15 17 18 16 11 13 14 14 14 13 12 12 10 10 12 14 13 13 14 14 14 14
14 11 6 4 5 4 5 5 3 5 3 2 1 2 3 6 7 6 6 6 9 13 15 16 16 16 14 14 16 16 15 14 14 13 13 13 14 14 13 13 15 15 15
15 11 8 5 5 3 4 5 4 2 3 4 2 1 3 4 2 5 4 4 7 7 10 14 14 14 15 13 16 19 18 16 16 16 15 15 15 14 13 14 14 14 13
14 13 11 8 5 3 4 4 5 5 3 2 5 3 1 3 3 1 3 5 6 5 9 12 15 15 16 16 16 19 21 20 19 18 18 18 17 16 16 15 14 15 15
13 14 13 10 6 4 5 5 4 4 3 4 2 5 3 2 1 4 2 3 4 6 6 7 11 15 16 16 17 18 19 22 22 22 20 19 19 18 18 17 16 15 16
10 10 11 9 5 4 5 5 4 5 4 3 3 2 3 3 3 3 4 3 2 5 7 8 11 13 15 17 17 19 22 22 22 23 23 20 21 21 20 19 18 18 17
5 9 8 9 8 6 6 6 6 6 5 5 3 3 4 3 3 4 6 4 5 4 5 6 7 11 16 18 19 21 23 25 25 26 27 24 22 22 22 21 20 19 19
3 7 6 6 3 5 7 7 6 7 6 5 7 6 4 5 3 3 2 3 4 2 3 4 5 9 12 14 16 21 22 23 25 26 28 26 24 22 22 23 21 21 21
5 3 8 11 8 8 7 10 8 7 7 7 8 6 5 6 5 5 4 4 3 3 2 5 1 4 8 12 15 16 16 22 25 26 28 28 27 27 24 24 24 23 24
2 6 7 7 6 3 5 4 5 10 6 6 7 8 8 7 6 6 6 5 4 2 3 3 2 3 7 10 13 13 14 17 23 27 29 29 28 27 27 27 26 26 25
7 8 7 7 6 4 3 3 4 7 8 5 5 7 7 6 6 6 6 4 4 4 3 4 4 4 5 7 11 13 14 15 20 24 26 29 29 28 28 28 28 28 29
8 9 9 9 6 1 2 3 3 8 10 7 7 8 10 8 5 5 4 4 5 5 5 3 4 2 3 4 5 11 11 11 12 20 21 23 25 27 27 28 28 28 29
6 10 9 7 5 6 9 9 4 9 11 9 8 7 9 6 8 8 6 7 6 7 5 7 4 3 5 4 3 4 5 9 9 11 17 20 22 22 26 29 29 30 31
6 8 9 7 7 8 5 6 5 9 6 6 6 8 10 6 9 6 7 7 6 5 6 4 4 3 3 2 3 2 3 4 7 10 14 17 23 26 26 27 29 31 32
6 7 9 10 9 7 6 7 8 12 7 5 5 6 10 7 10 9 7 7 6 5 4 4 3 3 3 2 2 3 3 4 4 8 12 14 19 23 28 30 29 31 33
5 7 7 7 6 5 5 7 9 11 8 7 6 6 9 11 13 12 6 7 5 5 4 5 3 3 3 2 3 2 3 2 3 4 4 5 7 12 17 26 23 28 32
6 6 7 7 7 6 9 11 9 7 7 5 7 7 8 10 7 9 10 15 9 7 6 5 4 4 5 4 4 4 3 2 2 3 3 3 9 7 10 16 23 29 30
5 6 6 6 7 8 10 11 9 5 5 6 6 6 7 6 6 6 8 12 13 17 7 6 5 7 4 7 6 5 5 4 4 3 4 3 4 6 10 16 24 30 32
5 5 6 6 5 7 9 9 6 4 4 6 7 6 6 7 6 6 6 9 8 7 9 7 7 6 6 6 7 5 5 4 1 3 4 4 3 4 3 11 20 27 29
4 5 4 6 7 8 9 8 4 3 5 6 5 6 7 7 11 8 7 4 8 8 7 12 13 12 11 11 7 5 4 3 3 4 5 3 3 3 3 4 10 20 24
4 4 6 6 8 10 8 7 7 3 6 4 6 7 10 10 8 11 8 5 10 9 5 4 3 8 9 10 13 8 5 5 4 3 4 5 3 3 3 1 0 4 6
Wind_Direction
194 196 201 210 214 207 201 221 225 194 191 224 231 249 228 184 161 198 194 194 204 176 194 196 221 194 192 191 187 182 169 196 203 193 182 172 181 175 166 166 174 167 162
192 197 203 216 220 217 215 206 212 208 229 224 233 227 237 233 232 229 233 200 216 226 218 211 220 211 205 200 196 195 170 170 180 190 187 178 171 179 177 166 163 163 167
193 200 201 216 230 224 212 212 197 185 214 224 262 241 219 234 234 238 232 222 194 216 254 234 229 228 220 210 214 189 189 171 172 161 160 178 173 173 183 176 174 168 168
203 203 204 214 226 220 201 189 172 185 217 215 254 275 258 222 223 233 219 219 222 214 219 242 238 231 231 247 220 214 210 179 180 177 170 164 165 167 162 165 157 160 159
209 204 203 225 223 195 171 170 188 172 185 226 225 221 251 260 234 216 213 224 228 222 223 228 213 236 231 232 234 217 205 194 189 188 183 172 167 167 168 162 161 163 156
226 209 203 203 210 183 173 173 181 208 202 213 207 244 237 235 244 236 223 218 222 224 228 235 244 242 232 229 238 230 221 209 191 190 189 178 167 162 158 156 157 159 159
216 211 219 201 177 181 200 193 179 196 242 182 48 291 270 229 226 230 227 227 226 223 225 235 241 245 239 238 236 233 230 221 208 193 192 191 180 171 168 170 164 163 163
218 210 208 212 198 197 190 197 187 173 219 175 160 128 324 325 282 225 195 220 235 214 220 227 229 228 231 228 230 229 229 228 220 202 200 199 194 186 182 180 177 170 171
222 215 212 215 216 205 210 209 201 190 215 222 199 173 265 247 319 2 202 214 227 210 228 224 224 221 219 223 230 231 231 226 225 220 208 204 202 197 188 188 187 181 178
222 221 218 215 221 219 234 222 205 205 168 226 189 230 239 159 242 327 287 244 231 239 233 229 227 224 212 208 222 228 227 225 223 221 216 210 206 201 196 193 194 195 192
234 231 228 214 217 216 234 240 229 214 205 210 191 160 221 221 217 210 282 291 294 240 239 226 211 217 215 211 212 216 222 223 224 222 219 217 211 205 201 199 201 200 206
226 233 221 223 221 223 235 233 224 216 214 222 221 205 185 182 206 217 240 262 245 254 240 231 209 208 209 212 211 214 216 217 214 215 220 220 215 210 208 202 205 207 210
231 232 212 218 249 317 289 262 235 230 220 215 222 223 215 229 184 198 207 267 260 300 293 235 223 204 207 207 211 217 216 216 217 212 215 214 215 217 210 209 212 212 215
218 14 66 81 56 37 6 345 303 257 212 218 220 217 219 233 201 201 202 186 283 258 284 255 252 208 205 205 215 217 213 215 214 215 214 213 209 210 215 214 215 217 215
128 126 133 146 162 207 243 243 285 288 237 223 224 217 220 231 221 213 218 215 193 259 281 300 278 232 212 216 224 214 211 210 216 215 216 218 216 214 216 218 221 218 219
146 162 179 194 208 279 97 199 304 287 247 232 227 224 234 234 223 210 212 210 193 204 236 215 242 225 208 218 232 218 219 217 217 220 216 214 217 218 220 219 218 221 220
166 175 197 212 216 16 263 234 213 274 251 240 223 226 241 237 233 228 210 195 201 183 212 263 234 242 226 213 225 218 226 216 221 232 230 214 210 215 219 220 218 218 221
168 186 209 210 190 182 216 217 160 247 238 238 242 232 240 245 238 233 215 218 205 201 192 237 224 239 222 221 209 197 217 219 215 224 228 224 220 221 222 223 221 222 225
172 200 207 229 212 236 209 283 288 276 272 236 236 241 250 216 246 239 238 239 218 199 205 206 222 219 245 193 212 189 201 234 230 227 215 220 225 221 230 229 229 229 230
186 204 213 223 217 224 206 254 269 272 261 268 275 273 269 242 241 244 234 238 234 199 192 212 223 220 210 227 192 200 229 212 223 212 210 202 209 217 226 230 232 233 234
195 215 227 231 230 206 205 222 261 273 284 297 295 268 269 258 251 247 250 242 223 216 200 196 203 197 194 180 199 196 227 197 240 205 197 201 198 209 222 226 228 229 231
221 209 225 227 245 241 222 219 221 241 262 269 275 270 263 266 262 267 258 252 221 200 203 190 196 204 210 188 180 195 193 183 284 188 193 241 185 207 214 215 221 222 226
233 235 237 227 242 254 255 253 255 230 244 249 250 258 280 275 284 288 289 275 241 233 201 184 195 203 200 194 171 189 197 182 209 214 181 254 184 226 212 224 223 222 224
225 232 242 238 250 262 247 252 241 234 268 270 260 256 258 285 278 270 289 284 267 240 226 216 212 212 213 189 180 182 191 192 208 216 169 246 196 234 192 224 232 229 230
259 249 247 263 251 260 222 243 201 243 256 274 280 266 252 262 261 237 234 265 275 255 231 212 210 205 193 201 187 141 182 177 221 218 182 192 220 245 225 238 227 232 235
280 276 272 252 262 275 268 235 192 213 257 268 271 252 241 243 275 283 243 200 259 249 251 274 271 273 224 201 189 198 183 189 198 275 167 171 181 193 280 249 208 197 189